Regional Weather Roundup
Issued by NWS

Home | Current Version | Previous Version | Text Only | Print | Product List | Glossary Off
Versions: 1 2 3 4 5 6 7 8 9 10 11 12 13 14 15 16 17 18 19 20 21 22 23 24 25 26 27 28 29 30 31 32 33 34 35 36 37 38 39 40 41 42 43 44 45 46 47 48 49 50

000
ASUS43 KFSD 221610
RWRSD

WEATHER ROUNDUP FOR SOUTH DAKOTA
NATIONAL WEATHER SERVICE SIOUX FALLS SD
1100 AM CDT SUN APR 22 2018

NOTE: "FAIR" INDICATES FEW OR NO CLOUDS BELOW 12,000 FEET WITH NO
SIGNIFICANT WEATHER AND/OR OBSTRUCTIONS TO VISIBILITY.


SDZ001>005-009-010-012>017-221700-
NORTHWEST AND NORTH CENTRAL SOUTH DAKOTA

CITY           SKY/WX    TMP DP  RH WIND       PRES   REMARKS
BUFFALO          N/A     54  33  45 NE6       30.08S
FAITH            N/A     49  40  71 S12       30.15F
MOBRIDGE       SUNNY     54  39  57 S15       30.18R
$$

SDZ012>016-024>037-041>051-057-063-072>074-221700-
SOUTHWEST AND SOUTH CENTRAL SOUTH DAKOTA

CITY           SKY/WX    TMP DP  RH WIND       PRES   REMARKS
RAPID CTY ARPT SUNNY     53  38  56 CALM      30.16F
PIERRE         SUNNY     52  40  63 S9        30.21F
CUSTER         SUNNY     53  30  41 E6        30.17S
ELLSWORTH AFB  SUNNY    N/A N/A N/A NE9       30.16F
PHILIP         SUNNY     50  40  68 S8        30.18F
PINE RIDGE     MOSUNNY   49  41  74 SW9       30.18F
SPEARFISH      FAIR      54  37  54 VRB5      30.16F
WINNER         FAIR      51  35  54 S9        30.26R
$$

SDZ004>011-016>023-039-040-221700-
NORTHEAST SOUTH DAKOTA

CITY           SKY/WX    TMP DP  RH WIND       PRES   REMARKS
ABERDEEN       SUNNY     54  38  54 S13       30.26F
WATERTOWN      SUNNY     51  38  60 S10       30.27F
BROOKINGS      SUNNY     52  34  50 S6        30.30F
SISSETON         N/A     55  39  54 SE9       30.27S
$$

SDZ017-020-022-023-036>040-048>070-221700-
SOUTHEAST SOUTH DAKOTA

CITY           SKY/WX    TMP DP  RH WIND       PRES   REMARKS
SIOUX FALLS    MOSUNNY   54  35  48 E7        30.29S
HURON          SUNNY     52  40  63 SE6       30.27S
CHAMBERLAIN    SUNNY     53  39  59 SW7       30.26S
MITCHELL       SUNNY     51  38  60 SE8       30.29S
YANKTON        SUNNY     52  36  54 VRB3      30.29S
$$

ABBREVIATIONS USED IN REMARKS
   TC - TEMPERATURE IN CELSIUS
  WCI - WIND CHILL INDEX
   HX - HEAT INDEX
  VSB - VISIBILITY





USA.gov is the U.S. government's official web portal to all federal, state and local government web resources and services.